Temp_Advection
nan nan nan nan nan nan nan nan nan nan nan nan nan nan nan nan nan nan nan nan nan nan nan nan nan nan nan nan nan nan nan nan nan nan nan nan nan nan nan nan nan nan nan nan nan nan nan nan nan nan nan nan nan nan nan nan nan nan nan nan nan nan nan
nan -0 0 -0 -1 -1 -0 0 1 1 -1 -1 -1 -0 0 1 0 -1 0 2 -0 -1 1 2 1 1 1 1 1 1 1 1 1 1 1 2 2 1 -0 -0 0 1 1 0 -2 -1 0 1 0 0 0 1 1 1 1 0 -0 -1 -1 -0 -0 -0 nan
nan -0 -0 -0 -1 -2 -1 -0 1 1 -0 -1 -1 -0 -0 0 0 -0 0 1 -0 -0 2 2 2 1 1 1 1 1 1 1 1 1 1 1 2 1 -0 -0 0 1 2 1 -0 -1 -1 -0 -0 -0 0 0 1 1 1 0 0 -0 -0 -0 -0 -0 nan
nan -0 -0 -0 -1 -1 -1 -0 0 0 -0 -0 -0 -0 -0 -0 0 0 -0 -0 -0 1 2 2 2 1 1 1 1 1 1 1 1 1 1 1 2 1 1 -0 0 1 2 2 1 -0 -1 -1 -0 -0 -0 0 1 1 0 -0 -0 0 0 -0 0 -0 nan
nan -0 -0 -0 -1 -1 -1 -0 -0 -0 -1 0 -0 -0 0 0 0 0 -0 -0 1 2 2 2 1 1 1 1 1 1 1 1 1 1 0 1 1 1 1 0 0 1 1 2 1 1 -1 -1 -0 0 0 0 0 0 -1 -1 -1 -0 -0 -0 -1 -1 nan
nan -0 -0 -0 -0 -1 -1 -0 -0 -1 -1 0 0 0 1 1 0 0 -0 -1 0 2 3 1 0 0 1 1 0 0 1 1 1 0 -0 0 1 1 1 0 0 1 1 2 2 2 1 -1 -1 0 -0 -0 0 0 -1 -2 -1 -1 -1 -1 -2 -2 nan
nan -0 -0 -0 -0 -0 -0 -0 -1 -2 -1 0 0 0 1 1 1 0 -0 -1 -0 2 3 2 0 1 1 1 -0 0 1 1 0 0 0 0 1 2 1 0 0 1 1 2 2 2 1 -0 -0 -0 -1 0 1 1 -1 -1 -1 -1 -1 -1 -1 -2 nan
nan -0 -1 -1 -0 -0 -0 -0 -1 -1 -1 0 0 1 1 1 1 1 0 0 0 1 2 2 1 1 -0 -0 0 1 1 1 1 1 1 1 1 2 1 0 0 1 2 2 2 2 1 0 -0 -1 -0 1 1 0 -0 -0 -0 -0 -0 -0 -0 -1 nan
nan -0 -1 -1 -0 0 -0 -0 -1 -0 0 -0 -0 0 0 0 1 0 0 1 1 1 2 2 1 0 -0 0 1 1 1 1 1 1 1 1 2 1 0 -0 1 1 1 2 2 1 0 0 -0 -1 0 1 0 0 0 0 0 -0 -0 -0 -0 -1 nan
nan -0 -1 -1 0 0 0 -0 -0 -0 0 -0 -0 1 1 -0 0 0 0 1 1 1 1 1 0 -0 -0 0 1 1 1 1 1 1 0 1 2 1 0 0 1 1 1 2 2 0 -0 -0 -1 -0 1 1 0 0 1 0 -0 -0 -0 0 -0 -2 nan
nan -1 -1 -0 0 -0 0 0 -0 -0 -0 -0 0 1 1 0 0 1 1 1 1 1 1 1 0 -0 -0 0 1 1 2 2 1 1 1 1 2 1 0 0 0 0 1 2 1 0 -0 -1 -1 0 1 1 0 1 0 0 -0 -0 -0 0 -0 -2 nan
nan -1 -0 -0 -0 -0 0 0 -0 -1 -1 -0 0 1 1 1 1 1 1 1 1 1 1 1 0 -0 -0 0 1 2 2 1 1 0 1 2 2 1 0 -0 0 1 1 1 1 1 -0 -0 0 1 1 1 1 1 0 0 -0 0 0 0 0 -1 nan
nan -0 -0 -0 -1 -0 0 0 -0 -1 -0 0 0 1 1 1 1 1 1 1 1 0 0 0 0 0 0 1 1 1 1 1 1 1 1 2 1 0 -0 -0 0 1 1 1 1 1 0 0 1 1 0 1 1 1 0 -0 -1 1 1 1 0 -1 nan
nan -0 -0 -0 -1 -0 -0 0 0 -0 -0 0 1 1 1 1 1 1 1 1 0 0 0 1 0 0 1 1 1 1 1 1 1 1 1 1 0 -1 -1 -0 0 1 1 1 1 0 -0 0 1 1 1 1 1 1 0 -0 -1 0 2 1 -0 -1 nan
nan -1 -1 -0 -0 -0 -0 -0 0 0 -0 0 1 2 1 1 1 1 1 1 0 0 1 1 1 1 0 0 0 0 1 1 1 1 1 1 -0 -1 -1 -0 0 1 1 1 1 0 1 1 1 1 1 0 0 0 -1 -1 -1 0 2 1 -1 -2 nan
nan -1 -1 -0 0 -0 -0 -0 -0 0 0 1 1 1 1 0 1 1 1 1 0 0 1 0 1 1 0 0 0 1 1 1 1 1 1 -0 -1 -1 -0 0 1 1 1 1 1 1 1 1 1 1 -0 -1 0 -0 -1 -1 -0 1 2 1 -2 -4 nan
nan -0 -0 0 0 -0 -0 -0 -0 0 1 1 1 1 0 0 0 0 0 0 0 1 0 0 1 0 0 0 0 1 1 1 1 1 0 -1 -1 -0 0 1 1 1 1 1 1 1 0 -0 -1 -1 -0 1 1 0 -0 -0 -0 0 2 1 -1 -3 nan
nan -0 -0 -0 -0 0 -0 -0 0 0 0 1 1 1 0 0 0 -0 0 0 1 1 0 0 1 0 0 0 0 1 2 1 1 0 -1 -0 0 1 0 0 1 1 1 1 1 -0 -1 -0 -1 -0 0 1 1 0 -0 -0 -0 0 1 0 -0 -1 nan
nan -0 -0 -0 -0 0 0 0 0 0 0 1 1 0 -0 -0 -0 0 0 1 1 0 0 0 1 0 0 0 1 1 2 1 -0 -1 -0 1 1 -0 -0 0 0 0 0 1 0 -0 0 0 -0 -0 0 0 0 -0 -0 0 0 0 0 -0 -0 1 nan
nan -0 -0 0 0 -0 -0 0 0 -0 1 1 1 0 -0 0 0 0 1 1 0 0 0 0 0 0 0 1 1 1 1 0 -0 0 1 1 -1 -1 -0 0 1 1 1 1 1 0 0 -0 -1 -0 -0 -0 -0 -0 -0 0 0 -0 0 -0 -0 1 nan
nan 0 0 0 0 0 -0 0 0 0 1 1 0 -0 -0 0 0 0 0 1 0 0 -0 -0 -0 -0 0 1 1 1 0 -0 0 1 0 -1 -1 0 1 1 1 1 1 1 0 -0 -0 -0 -0 -0 -0 -0 0 0 -0 -0 -0 -0 0 0 0 0 nan
nan 0 0 0 0 0 -0 0 0 0 0 0 -0 -0 -0 -0 0 0 0 1 0 0 -0 -0 -0 0 0 0 0 1 0 -0 0 0 -0 -0 1 1 1 1 1 1 0 0 0 -0 -0 -0 -0 -0 0 0 0 0 -0 -0 -0 -0 -0 -0 0 0 nan
nan -0 -0 0 0 0 0 0 0 0 0 0 -0 -0 0 0 0 0 0 0 0 0 0 0 0 0 0 0 0 0 0 -0 0 -0 0 1 1 0 0 1 1 0 0 0 0 -0 -0 -0 -0 0 0 0 -0 -0 -0 0 -0 -0 -0 -0 -0 0 nan
nan -0 -0 -0 0 0 0 0 0 0 0 0 0 0 0 0 0 0 0 0 0 0 0 0 0 0 0 0 -0 -0 -0 -0 -0 0 1 1 0 -0 1 1 0 0 0 -0 -0 -0 -0 0 0 0 0 -0 -0 -0 -0 0 -0 -0 -0 -0 -0 0 nan
nan -0 -0 -0 -0 0 0 0 0 0 0 0 0 -0 0 0 0 0 0 0 0 0 0 0 0 0 0 -0 -0 -0 -0 -0 0 0 1 0 -0 0 1 0 0 0 -0 -0 -0 -0 0 0 0 0 -0 -0 0 0 -0 0 0 -0 -0 -0 -0 -0 nan
nan -0 -0 -0 -0 0 0 0 0 0 0 0 -0 -0 0 0 0 0 0 0 0 0 0 0 0 0 -0 0 0 0 0 0 0 0 0 -0 0 1 0 0 -0 -0 -0 -0 0 0 0 0 0 0 0 -0 -0 -0 -0 -0 -0 -0 -0 -0 -0 -0 nan
nan -0 -0 -0 -0 0 0 0 0 0 0 -0 -0 -0 0 0 0 0 0 0 0 0 0 0 0 0 0 0 0 1 0 0 0 0 -0 0 1 0 0 -0 -0 -0 -0 0 0 0 0 0 0 0 -0 -0 -0 -0 -0 -0 -0 -0 -0 -0 -0 -0 nan
nan 0 0 -0 -0 -0 0 0 0 0 0 -0 -0 -0 -0 0 0 0 -0 0 0 0 0 0 0 0 0 0 0 0 0 0 0 0 0 1 1 0 -0 -0 -0 -0 0 0 0 0 0 0 0 0 -0 -0 -0 -0 -0 -0 -0 -0 -0 -0 -0 -0 nan
nan 0 0 -0 -0 -0 -0 0 0 0 0 0 0 0 0 0 0 0 -0 0 0 -0 0 0 0 0 0 0 -0 -0 0 0 0 0 1 1 0 -0 -0 -0 -0 0 0 0 -0 0 0 0 -0 -0 -0 -0 -0 -0 -0 -0 -0 -0 -0 -0 -0 -0 nan
nan 1 0 -0 -0 -0 -0 0 0 0 0 0 0 0 0 0 0 0 0 0 -0 -0 0 0 0 0 0 -0 -0 -0 -0 -0 0 0 0 -0 -0 -0 -0 -0 -0 0 0 -0 -0 0 0 0 -0 -0 -0 -0 -0 -0 -0 -0 -0 -0 -0 -0 -0 -0 nan
nan 1 1 0 -0 -0 -0 0 0 0 0 0 0 1 1 0 0 0 0 -0 -0 -0 -0 -0 -0 0 0 -0 -0 -0 -0 -0 0 0 -0 -0 -0 -0 -0 -0 -0 -0 -0 -0 0 0 0 0 -0 -0 -0 -0 -0 -0 -0 -0 -0 -0 -0 -0 -0 -0 nan
nan 0 1 0 -0 0 0 0 0 0 0 0 0 1 1 0 0 0 0 0 -0 -0 -0 -0 -0 -0 -0 -0 -0 -0 0 0 0 0 -0 -0 -0 -0 -0 -0 -0 -0 -0 0 0 0 0 0 -0 -0 -0 -0 -0 -0 -0 -0 -0 -0 -0 -0 -0 -0 nan
nan -0 0 0 -0 0 0 0 0 0 0 0 1 1 1 0 0 0 0 0 0 -0 -0 -0 -0 -0 -0 -0 -0 0 1 1 0 -0 -0 -0 -0 -0 -0 -0 -0 -0 0 0 0 0 0 0 0 -0 -0 -0 -0 -0 -0 -0 -0 -0 -0 -0 -0 -0 nan
nan -0 -0 0 0 0 0 0 0 0 0 0 0 0 0 0 0 1 1 0 0 0 -0 -0 -0 -0 -0 -0 0 1 0 0 -0 -0 -0 -0 -0 -0 0 0 -0 0 0 0 0 0 0 0 0 0 -0 -0 -0 -0 -0 -0 -0 -1 -1 -1 -1 -0 nan
nan -0 -0 0 0 0 -0 -0 0 0 0 0 0 0 0 0 0 1 1 1 0 0 0 -0 -0 -0 -0 -0 0 0 -0 -0 -0 -0 -0 -0 -0 -0 -0 -0 -0 0 0 0 0 0 0 0 0 0 0 -0 -0 -0 -0 -0 -0 -1 -1 -1 -1 -1 nan
nan nan nan nan nan nan nan nan nan nan nan nan nan nan nan nan nan nan nan nan nan nan nan nan nan nan nan nan nan nan nan nan nan nan nan nan nan nan nan nan nan nan nan nan nan nan nan nan nan nan nan nan nan nan nan nan nan nan nan nan nan nan nan
Wind_Speed
21 20 20 21 24 26 26 26 27 27 27 28 30 32 33 33 35 37 39 40 40 41 41 42 42 42 42 43 44 45 47 47 46 43 41 40 39 39 37 34 33 32 27 26 27 27 26 25 24 25 25 25 25 24 23 24 25 25 26 27 28 28 28
22 21 21 19 23 27 28 28 28 28 28 28 30 31 33 34 35 37 38 39 41 42 41 41 43 43 43 43 43 45 47 47 47 44 40 40 39 38 37 35 33 31 30 28 27 26 26 25 25 25 25 25 26 25 23 24 25 26 27 28 28 29 30
22 22 22 21 24 29 29 28 28 28 28 28 29 30 32 35 37 37 37 39 41 42 41 41 43 44 44 43 44 46 47 47 47 45 41 39 39 38 37 36 33 31 30 29 26 25 25 24 25 25 25 25 26 25 24 25 25 26 28 29 29 29 31
23 23 22 21 24 28 28 27 26 26 27 28 29 29 31 33 37 39 38 38 40 41 41 41 43 44 44 44 45 47 48 48 48 46 42 40 39 38 37 35 32 30 29 28 26 24 24 24 24 25 25 25 25 25 25 26 26 27 29 30 30 30 32
23 24 24 23 23 24 25 26 25 26 27 28 29 30 30 31 34 38 40 39 39 40 40 41 43 44 44 44 46 47 48 49 49 47 43 40 38 37 36 34 32 29 28 28 26 24 23 24 25 26 26 25 24 24 25 25 26 28 29 29 30 31 33
25 25 25 25 24 22 24 25 25 27 29 29 30 31 31 31 33 37 39 39 38 39 40 41 43 43 42 44 47 48 48 49 49 47 43 40 38 37 37 34 31 29 28 27 26 24 23 24 25 26 25 23 22 23 23 23 25 27 27 28 30 31 32
28 28 27 26 24 23 23 23 25 28 30 30 30 31 31 32 33 36 38 40 39 39 40 41 42 42 42 44 45 46 47 48 47 45 42 40 39 38 37 34 30 29 28 26 26 25 23 23 24 24 24 23 21 21 21 20 21 22 23 25 27 29 32
29 29 28 26 24 23 23 23 24 28 30 30 30 30 31 32 33 35 38 40 40 40 40 40 41 42 43 42 42 43 44 44 43 42 41 42 40 38 36 33 30 28 27 26 27 25 22 21 20 21 22 20 18 18 19 18 18 18 20 23 26 29 33
29 29 28 26 24 23 24 23 24 27 29 29 29 29 30 32 33 35 37 40 41 41 40 41 41 41 41 40 39 40 41 39 39 39 40 41 40 38 36 32 29 28 27 27 26 23 21 19 19 19 19 17 16 16 16 15 15 18 21 25 28 31 34
29 28 27 26 24 24 25 25 27 29 28 28 30 30 30 32 33 36 38 40 42 42 41 41 41 41 39 38 37 38 37 36 37 37 37 37 37 36 34 31 29 28 28 28 27 24 22 21 21 21 19 17 16 14 13 13 16 20 22 25 28 32 33
28 27 26 26 26 26 26 26 28 29 29 29 29 28 30 33 34 36 39 41 42 43 42 42 42 41 39 36 36 36 35 35 36 36 35 34 31 30 29 29 28 28 28 29 28 26 25 24 23 23 20 18 16 14 14 17 20 22 23 25 28 30 31
27 25 23 24 26 26 26 27 28 29 29 29 28 27 30 35 36 36 39 42 43 44 43 42 42 40 38 36 35 35 35 35 35 35 34 30 27 26 26 27 27 27 27 28 27 26 25 24 23 23 21 20 19 18 19 22 25 24 25 27 28 29 30
26 24 23 24 25 24 24 26 27 28 29 29 31 30 30 35 38 37 39 42 43 44 43 42 41 39 37 35 34 34 35 35 34 34 31 28 27 27 27 26 26 26 26 26 25 24 23 22 23 22 22 23 23 23 25 27 28 28 28 28 28 30 33
23 23 24 25 24 22 23 26 27 28 29 30 33 31 29 34 39 37 38 40 42 42 41 40 39 37 35 34 33 34 34 34 34 33 30 28 28 27 27 27 26 25 24 23 22 21 22 23 24 23 22 24 25 26 29 29 29 29 28 29 31 33 35
21 22 23 22 22 22 24 26 26 27 29 31 31 27 25 32 37 36 35 37 38 38 38 37 36 35 32 30 30 31 32 32 33 32 30 29 28 28 27 27 26 25 24 23 22 22 22 22 22 22 23 25 28 30 31 29 27 27 27 30 34 36 36
20 21 22 21 21 24 26 27 27 27 29 30 26 21 22 29 34 34 32 33 34 35 34 34 33 32 30 27 27 29 29 30 32 32 30 29 27 27 27 27 25 24 22 21 20 20 19 20 22 24 26 28 30 30 28 25 24 24 26 32 36 37 37
20 21 23 23 24 25 27 28 28 27 27 26 21 17 21 27 31 32 30 28 29 30 31 31 30 29 27 25 25 26 27 28 30 31 30 28 27 28 28 25 23 21 20 19 19 20 22 25 27 28 28 27 27 26 24 23 23 23 26 31 35 35 35
22 23 24 24 24 25 26 28 27 25 24 22 16 16 22 26 29 31 29 24 24 26 27 27 26 25 25 23 22 23 25 27 29 30 29 28 29 29 26 23 22 20 19 19 21 25 27 28 27 26 24 23 23 22 21 21 22 22 24 27 29 31 33
23 23 24 24 25 26 26 26 26 24 23 20 15 17 22 26 27 29 30 26 24 24 23 22 23 22 21 20 19 20 23 26 27 28 29 29 29 27 24 22 20 18 19 20 23 25 26 24 23 22 20 19 19 18 18 18 18 19 21 23 25 27 30
22 23 24 25 25 26 25 24 24 24 21 16 15 18 23 26 27 28 30 28 26 24 22 21 21 20 18 18 18 19 22 25 27 29 29 29 27 24 22 19 18 17 19 21 22 23 22 20 19 17 15 14 14 14 14 15 15 17 19 21 22 24 26
21 22 24 24 24 23 22 21 20 19 15 13 16 18 22 25 25 26 28 28 26 24 22 21 21 19 17 18 19 21 24 27 27 27 27 25 23 19 17 16 17 19 20 21 20 19 18 16 14 12 11 10 11 11 12 13 14 16 17 19 21 22 25
22 22 22 22 22 20 17 16 15 12 11 13 17 18 21 23 24 25 25 25 26 25 22 21 20 18 17 19 21 24 28 27 25 24 23 21 18 16 16 17 18 19 19 18 17 16 13 11 11 10 9 8 8 9 11 12 14 15 16 18 19 21 23
22 21 20 20 18 16 13 12 10 8 9 14 18 17 19 21 22 23 23 22 23 22 20 20 19 17 17 20 23 26 28 26 23 22 21 18 17 17 18 18 17 17 16 15 15 13 11 9 9 8 7 7 7 9 10 11 13 15 16 17 18 19 22
21 20 18 17 15 13 10 8 7 6 9 15 19 17 17 19 19 18 18 18 19 19 18 19 18 17 18 22 25 25 25 25 23 20 17 17 17 17 16 15 15 15 14 14 13 13 10 8 7 6 6 6 7 9 10 10 13 15 15 16 18 18 20
20 20 16 14 13 10 7 6 6 7 10 15 20 18 16 17 16 15 14 14 14 15 15 16 16 17 19 23 25 23 23 23 23 19 17 18 17 15 13 12 13 14 14 13 13 12 9 7 6 5 5 5 6 7 9 10 12 14 15 16 17 17 17
18 18 15 12 10 8 6 5 7 9 11 15 20 20 16 14 14 13 12 11 10 11 14 16 17 19 21 23 23 23 24 25 25 24 23 21 16 13 12 12 13 14 14 13 12 10 8 6 5 3 3 3 5 7 9 10 11 13 14 16 17 17 17
18 17 15 12 10 8 7 5 7 10 12 16 20 22 19 14 14 14 13 12 13 15 17 19 19 20 22 24 25 26 28 29 29 28 25 20 15 13 13 13 14 16 15 12 11 9 8 5 4 2 1 3 5 7 9 10 12 13 14 16 17 17 18
18 17 15 13 10 8 8 7 8 11 13 16 19 22 21 17 17 17 16 16 18 19 19 21 23 25 28 29 29 30 30 30 29 26 22 18 15 15 14 15 16 16 14 12 11 9 7 5 3 1 2 4 6 7 9 11 12 14 15 16 17 18 19
17 16 14 13 10 8 8 7 6 9 12 15 17 21 23 21 20 20 18 19 21 22 23 27 30 31 33 32 31 31 31 29 27 24 20 18 16 15 16 17 17 15 14 12 10 9 7 5 3 1 2 4 6 8 10 11 13 14 15 16 18 19 20
16 14 13 12 9 7 7 6 6 8 13 15 16 21 24 22 21 21 20 21 24 25 27 31 33 33 33 33 32 32 31 28 25 22 20 19 17 17 18 19 17 15 14 12 10 8 6 5 3 1 2 4 6 8 10 12 13 14 16 17 18 19 20
16 14 12 9 7 5 6 8 9 10 14 17 17 22 25 22 21 23 23 24 26 27 28 31 33 33 33 32 31 31 30 26 23 21 20 19 18 19 20 18 17 15 14 12 10 8 6 5 2 1 2 5 7 9 11 12 14 16 17 18 19 20 21
17 15 11 8 7 5 3 7 10 10 13 17 19 23 25 23 22 25 25 24 25 27 27 29 32 32 32 32 30 29 27 24 21 20 19 18 20 21 20 18 17 16 14 12 10 8 6 4 2 1 3 5 8 10 12 13 15 17 18 19 20 21 22
19 13 6 5 7 6 3 4 7 8 12 17 20 22 23 22 21 25 26 24 25 26 27 28 29 30 31 31 29 27 24 22 20 19 18 19 21 21 20 18 17 16 14 11 9 7 5 3 1 1 4 6 8 10 12 14 16 17 19 20 21 22 23
18 11 3 4 8 7 3 1 4 7 10 16 19 20 21 21 20 23 25 25 24 25 26 27 27 28 29 28 26 24 22 20 20 19 19 22 23 21 19 19 18 15 13 11 9 7 5 3 1 2 4 7 9 11 13 15 17 19 20 22 23 24 24
16 8 6 8 9 7 4 4 5 8 11 16 18 19 22 24 24 25 27 26 25 24 24 24 24 25 26 26 24 22 20 19 19 19 22 24 23 21 20 19 17 15 13 10 8 6 5 3 2 3 5 7 9 11 13 15 17 19 20 22 24 25 25
14 9 10 10 9 7 6 6 8 10 12 16 18 20 25 28 28 28 29 28 26 24 22 21 22 23 24 24 22 20 19 18 19 20 23 24 22 20 20 18 16 14 12 10 8 7 5 4 4 4 6 8 10 12 13 15 16 18 20 22 23 24 25
Wind_Direction
279 276 274 273 271 269 268 266 264 262 261 261 262 262 260 258 256 254 253 251 249 245 243 243 242 240 239 239 237 237 236 234 233 234 239 242 239 236 236 237 237 237 236 243 249 251 254 257 257 256 259 263 267 271 275 279 280 281 279 279 279 279 279
278 276 275 273 272 272 271 269 267 264 262 261 261 262 262 259 256 255 254 251 249 245 243 243 243 241 240 239 237 236 235 234 233 235 239 242 238 234 236 237 239 241 240 241 247 250 251 251 253 255 258 263 268 271 275 278 280 282 282 282 282 282 283
275 274 273 271 271 273 274 273 271 267 265 263 262 261 262 261 259 257 255 251 249 246 243 243 243 242 240 238 236 235 234 234 234 236 240 241 238 235 236 238 240 242 242 241 244 248 249 247 247 250 254 258 265 269 273 276 278 280 280 281 282 282 282
275 273 271 269 270 272 274 274 273 269 266 265 264 263 262 262 261 260 257 253 251 248 244 243 242 242 240 237 234 233 233 232 233 236 237 238 237 235 235 238 240 241 242 242 243 246 249 249 248 251 253 255 261 266 271 273 275 277 278 280 282 282 282
277 275 272 270 269 270 272 273 272 270 267 264 264 263 262 262 261 260 258 255 252 249 247 244 243 241 239 235 233 232 232 232 232 234 235 236 236 234 234 236 238 240 242 242 242 243 248 251 252 255 258 260 264 270 273 275 276 278 281 282 282 283 283
280 277 275 272 269 267 269 270 269 270 269 266 266 264 264 264 261 258 256 254 251 249 247 245 243 242 239 236 234 233 232 232 232 233 234 236 236 234 233 234 236 239 240 242 242 240 243 249 254 259 263 267 274 277 277 279 281 284 287 288 289 289 290
283 279 276 274 270 266 265 266 265 267 269 268 268 267 266 267 265 260 256 252 249 248 246 243 242 241 239 236 236 235 234 233 234 234 235 236 236 233 231 232 234 237 238 239 240 239 240 245 253 259 265 271 277 278 276 278 282 285 288 290 290 290 293
286 281 278 274 270 266 263 263 262 266 269 270 271 272 269 268 266 263 258 252 247 245 244 242 239 238 238 238 238 237 236 235 236 235 234 235 235 232 230 230 232 234 236 236 237 238 239 242 247 256 265 271 270 268 269 273 275 276 280 284 286 289 293
286 282 277 272 270 268 264 263 262 265 271 275 278 278 273 269 266 261 258 252 246 242 241 239 236 235 236 238 238 238 237 237 237 236 235 236 235 231 227 227 229 229 231 233 233 233 233 236 241 249 258 260 255 255 261 265 269 273 281 287 289 291 294
284 280 277 272 269 268 265 265 266 268 275 282 284 281 274 269 264 258 255 250 244 240 237 235 234 234 235 236 237 238 237 236 237 237 239 240 237 231 226 225 225 225 227 229 230 230 231 234 242 249 253 251 251 255 258 263 274 281 290 294 292 292 295
283 280 277 270 268 268 266 267 270 276 281 283 283 280 272 268 264 257 251 246 241 238 235 232 231 231 232 233 234 236 235 234 235 236 238 238 235 231 229 226 223 223 225 227 229 232 235 238 246 253 254 254 256 257 258 268 279 287 291 291 290 291 295
285 281 273 268 270 272 269 268 272 277 281 281 280 277 269 264 261 255 248 242 237 234 233 231 230 230 230 230 231 232 232 232 233 235 236 231 224 225 226 223 222 223 225 228 231 234 238 244 251 255 257 258 260 260 265 275 283 287 288 287 286 287 292
286 279 272 272 277 277 274 275 277 279 282 283 283 279 264 254 252 250 244 238 233 231 231 229 228 228 228 228 228 230 231 231 231 231 229 221 217 220 220 219 221 223 227 231 234 237 242 247 251 254 258 263 265 268 274 281 286 288 287 285 284 286 291
280 273 274 278 279 278 277 278 281 285 287 286 284 278 260 245 243 243 241 236 232 230 230 229 227 226 225 224 225 228 229 228 228 225 219 212 212 215 216 218 221 222 226 231 233 237 241 247 252 257 262 267 271 274 278 282 285 286 286 284 285 289 293
276 274 280 284 281 279 279 278 282 288 290 289 285 275 254 239 237 237 237 236 232 230 231 230 228 226 224 222 224 227 228 227 225 221 213 209 211 212 214 218 221 223 225 228 231 238 244 251 260 264 266 268 271 273 276 279 282 285 288 290 292 296 299
274 279 288 289 284 283 280 278 283 289 291 290 283 264 240 233 233 232 233 233 230 230 230 230 228 226 223 222 223 227 229 228 224 217 208 207 209 212 214 218 221 223 226 229 235 244 251 257 260 260 262 267 271 273 276 280 285 290 293 292 292 296 300
281 288 292 289 283 282 282 282 285 289 289 286 274 244 227 229 229 228 229 231 229 228 228 228 227 225 223 221 222 224 227 227 220 210 204 205 209 212 215 217 218 220 224 227 232 237 242 247 251 255 261 266 270 274 278 283 288 292 292 289 289 294 299
297 297 293 288 282 280 282 285 288 288 286 280 259 224 220 225 226 225 227 227 225 224 225 225 224 224 222 219 218 218 221 222 215 204 200 204 209 212 215 216 216 218 222 225 228 233 239 246 253 259 264 266 270 274 277 282 286 288 288 288 291 296 300
304 301 297 294 291 288 286 285 284 285 284 273 240 212 216 222 223 223 224 222 218 215 216 217 218 220 218 214 213 214 213 213 207 198 199 205 209 210 213 214 217 220 224 228 232 237 244 249 253 257 259 261 266 269 273 279 283 287 291 293 297 300 301
306 303 301 299 296 292 288 282 280 281 279 258 217 205 215 219 219 220 220 219 215 209 206 208 209 211 206 201 204 204 198 199 199 197 200 205 207 209 212 214 216 219 223 228 232 236 241 243 244 246 250 254 259 265 273 283 288 292 296 298 303 305 301
310 305 302 299 294 289 284 281 280 276 263 229 198 201 214 217 218 220 219 217 214 209 205 203 203 201 196 193 196 190 183 190 198 198 199 204 206 208 212 211 211 215 220 225 228 229 232 232 230 232 241 250 259 267 279 289 293 297 300 302 308 310 307
311 307 305 303 298 292 285 282 278 264 237 201 186 197 214 217 218 221 218 215 214 210 207 206 202 197 192 190 187 179 176 186 196 196 196 200 199 200 205 206 208 213 216 218 219 216 215 216 216 222 236 252 263 272 284 293 296 300 306 309 314 316 313
311 312 313 311 305 297 289 282 271 243 207 185 178 190 213 217 216 219 218 216 215 211 209 208 202 194 190 184 179 175 174 180 191 193 189 188 191 197 202 203 204 208 207 206 204 198 195 200 206 217 235 252 266 276 284 294 299 304 310 313 318 321 319
317 319 321 317 310 299 287 275 256 217 188 180 175 184 208 215 213 215 217 217 217 213 208 204 196 187 182 178 176 174 171 176 188 192 182 181 193 199 197 195 197 199 197 193 190 188 186 191 200 214 238 256 271 283 292 300 306 309 313 316 320 323 323
321 325 325 320 311 298 279 260 236 202 182 180 177 177 196 212 213 213 213 211 212 210 201 191 183 177 175 175 175 172 168 174 187 191 186 191 199 195 189 192 196 192 185 180 178 181 184 191 204 220 247 268 286 299 308 313 312 312 315 316 317 320 322
322 328 330 325 314 291 266 243 221 200 183 183 183 176 181 204 212 205 200 199 197 192 183 175 172 171 169 170 172 170 169 176 186 190 193 200 201 195 195 199 193 183 176 170 167 173 180 188 203 220 257 295 313 320 320 321 321 320 320 319 318 318 320
327 329 330 329 321 296 265 232 212 202 187 184 186 179 175 189 200 188 182 186 183 177 173 169 166 165 164 167 171 173 176 183 189 192 197 201 201 204 205 196 183 177 172 166 165 171 176 178 187 208 315 331 331 331 327 328 329 327 325 324 323 322 324
327 325 324 323 322 303 272 243 217 206 194 187 188 182 175 182 191 183 179 184 178 169 168 166 162 165 169 172 176 178 181 187 192 194 198 201 206 210 201 183 174 172 169 168 169 171 169 165 160 132 359 345 338 335 333 333 332 331 329 329 329 329 331
326 319 314 311 311 301 278 258 230 210 198 189 188 186 181 183 190 187 182 181 174 167 167 168 167 170 174 176 178 181 184 189 192 194 198 204 207 202 188 176 171 167 164 167 168 165 163 157 138 88 9 351 342 338 338 337 334 333 334 334 334 337 339
327 316 306 301 298 295 282 254 219 204 196 186 185 187 186 187 192 188 181 178 175 171 172 172 171 173 176 178 181 184 187 190 193 196 201 202 197 187 178 173 169 165 165 167 167 163 159 152 133 73 10 354 345 341 341 340 338 339 340 339 340 343 345
332 318 302 284 265 268 272 245 219 205 194 184 179 184 186 187 189 186 182 180 178 176 176 176 175 175 178 181 184 187 189 193 196 198 199 196 187 178 174 171 169 169 170 170 168 164 158 152 140 64 6 351 346 345 344 343 343 344 344 345 346 347 348
336 322 298 263 222 203 237 240 226 208 192 182 177 181 186 187 187 185 185 185 183 181 180 181 179 178 179 184 187 190 193 197 197 195 193 188 180 175 171 169 169 172 174 172 169 166 162 158 147 44 358 347 346 345 344 344 346 347 346 347 349 350 350
342 334 308 237 194 174 180 231 224 205 186 178 175 177 182 184 185 188 189 188 189 188 185 184 184 183 184 187 189 191 193 194 192 190 187 182 178 174 172 172 173 176 176 173 171 172 170 168 153 358 343 341 342 341 342 344 345 346 348 348 350 351 351
350 350 8 160 165 157 132 172 197 187 174 171 170 172 174 174 178 187 192 193 193 193 190 186 186 187 187 187 188 189 190 189 187 185 182 178 175 174 174 176 178 178 176 175 177 180 182 188 233 323 329 332 334 336 340 343 344 346 349 350 350 351 351
3 21 89 129 141 132 92 96 148 160 161 164 164 163 166 170 173 182 191 194 194 194 192 188 187 188 187 186 185 186 188 187 185 183 180 177 176 175 176 178 180 179 178 180 186 193 198 212 254 297 312 320 328 333 337 340 343 346 349 350 350 350 350
22 63 106 121 121 106 82 103 135 148 155 159 160 160 167 175 179 183 188 191 192 192 191 187 186 187 186 184 183 185 187 187 186 183 179 177 177 177 178 181 182 182 183 188 196 205 214 229 258 286 303 313 323 330 333 336 340 344 347 350 350 349 349
Height
1345 1345 1345 1344 1344 1343 1343 1342 1342 1343 1343 1343 1343 1342 1342 1342 1342 1342 1342 1344 1345 1347 1349 1351 1353 1354 1356 1358 1361 1364 1367 1369 1371 1373 1375 1377 1379 1381 1384 1386 1388 1389 1391 1391 1393 1395 1395 1396 1396 1396 1397 1398 1398 1399 1399 1398 1397 1396 1395 1394 1393 1393 1392
1341 1341 1340 1339 1338 1337 1337 1337 1337 1337 1338 1338 1338 1338 1338 1337 1337 1337 1338 1339 1340 1341 1345 1347 1348 1350 1351 1353 1356 1358 1361 1364 1366 1368 1370 1372 1374 1376 1378 1381 1384 1385 1387 1388 1389 1391 1393 1393 1393 1393 1394 1395 1395 1395 1396 1395 1394 1393 1392 1390 1389 1389 1388
1337 1337 1336 1335 1334 1332 1332 1332 1332 1333 1333 1333 1334 1333 1333 1333 1332 1332 1333 1334 1335 1336 1340 1342 1344 1345 1347 1349 1352 1353 1355 1359 1362 1363 1366 1367 1369 1372 1374 1376 1379 1381 1382 1384 1385 1386 1388 1390 1390 1390 1391 1392 1392 1392 1392 1391 1391 1390 1388 1386 1386 1385 1384
1333 1333 1332 1331 1330 1329 1328 1328 1328 1328 1328 1328 1329 1329 1328 1328 1328 1328 1328 1329 1330 1332 1335 1337 1339 1340 1342 1344 1346 1348 1350 1353 1356 1358 1360 1363 1365 1367 1370 1372 1375 1377 1378 1379 1381 1382 1384 1385 1387 1387 1388 1389 1389 1388 1388 1387 1387 1386 1384 1383 1382 1381 1380
1329 1329 1328 1327 1326 1325 1325 1324 1324 1324 1323 1323 1324 1323 1323 1323 1323 1323 1323 1324 1326 1328 1330 1332 1333 1334 1337 1339 1341 1343 1345 1347 1350 1353 1356 1358 1360 1363 1365 1368 1370 1372 1374 1375 1377 1378 1380 1381 1382 1383 1383 1384 1385 1384 1384 1383 1383 1382 1380 1379 1378 1377 1375
1325 1325 1324 1323 1322 1322 1321 1320 1320 1319 1319 1319 1318 1318 1318 1318 1318 1318 1318 1319 1320 1323 1325 1326 1327 1329 1332 1334 1336 1337 1340 1342 1345 1349 1352 1355 1357 1359 1361 1364 1366 1368 1369 1371 1373 1375 1377 1377 1378 1379 1379 1380 1381 1380 1380 1379 1378 1377 1376 1376 1374 1373 1371
1321 1320 1319 1319 1318 1318 1317 1316 1316 1315 1314 1314 1314 1313 1313 1313 1312 1313 1313 1313 1315 1317 1319 1321 1322 1324 1326 1328 1330 1333 1336 1339 1342 1345 1349 1351 1352 1355 1357 1359 1362 1364 1366 1367 1369 1372 1373 1374 1375 1375 1376 1377 1377 1377 1376 1375 1374 1373 1373 1372 1371 1369 1368
1317 1316 1315 1315 1314 1313 1313 1312 1311 1310 1309 1309 1309 1308 1308 1307 1307 1307 1308 1308 1310 1311 1313 1315 1317 1319 1320 1323 1326 1329 1333 1336 1338 1342 1345 1347 1348 1351 1353 1355 1357 1359 1362 1364 1366 1368 1370 1371 1372 1373 1373 1373 1374 1374 1373 1372 1370 1369 1369 1368 1367 1365 1364
1313 1312 1311 1310 1310 1309 1308 1307 1306 1305 1305 1304 1304 1303 1303 1302 1302 1302 1302 1303 1305 1306 1307 1309 1312 1314 1316 1319 1322 1326 1329 1333 1335 1337 1340 1342 1345 1347 1349 1351 1353 1355 1357 1360 1362 1364 1366 1367 1368 1369 1370 1370 1370 1371 1370 1369 1367 1365 1364 1363 1362 1360 1359
1309 1308 1306 1306 1306 1304 1303 1302 1301 1300 1301 1300 1299 1298 1298 1297 1296 1297 1297 1298 1299 1301 1302 1304 1306 1309 1312 1315 1319 1322 1326 1329 1331 1334 1336 1339 1341 1344 1345 1347 1349 1351 1353 1356 1358 1360 1362 1364 1364 1366 1367 1367 1367 1367 1367 1365 1363 1360 1359 1358 1356 1355 1355
1304 1303 1302 1302 1301 1299 1298 1297 1296 1296 1296 1296 1295 1294 1292 1291 1291 1291 1291 1292 1293 1295 1297 1299 1302 1305 1308 1312 1315 1319 1322 1325 1328 1330 1332 1335 1338 1341 1343 1344 1345 1347 1349 1351 1354 1356 1358 1359 1360 1362 1363 1363 1363 1364 1363 1361 1359 1357 1356 1355 1352 1350 1350
1299 1298 1298 1297 1295 1294 1293 1292 1292 1291 1291 1290 1289 1289 1287 1285 1284 1285 1286 1286 1287 1289 1292 1295 1298 1301 1304 1308 1311 1315 1318 1321 1324 1326 1329 1332 1335 1338 1340 1341 1342 1344 1346 1348 1350 1352 1354 1356 1357 1358 1358 1359 1359 1359 1359 1357 1356 1354 1352 1351 1349 1347 1345
1295 1293 1293 1291 1290 1289 1288 1287 1287 1286 1286 1285 1284 1283 1282 1279 1278 1279 1280 1281 1282 1284 1287 1290 1294 1297 1300 1304 1308 1311 1314 1317 1320 1323 1325 1328 1331 1334 1336 1338 1340 1341 1343 1344 1347 1349 1351 1352 1353 1354 1354 1354 1355 1355 1355 1353 1351 1350 1349 1347 1346 1344 1343
1290 1289 1288 1287 1286 1285 1283 1282 1282 1281 1280 1280 1278 1277 1276 1274 1273 1274 1276 1277 1279 1281 1283 1287 1290 1293 1296 1300 1304 1307 1310 1314 1316 1319 1322 1325 1327 1329 1332 1335 1337 1338 1340 1341 1343 1345 1347 1348 1349 1350 1350 1351 1351 1351 1351 1350 1347 1346 1345 1344 1343 1341 1340
1286 1285 1283 1283 1282 1281 1279 1278 1277 1276 1275 1274 1272 1271 1271 1270 1269 1271 1273 1274 1276 1279 1281 1284 1288 1290 1293 1297 1300 1303 1307 1310 1313 1316 1319 1321 1324 1326 1329 1331 1333 1335 1337 1338 1340 1341 1343 1345 1345 1346 1347 1347 1347 1347 1346 1346 1344 1343 1342 1340 1339 1337 1336
1282 1280 1279 1278 1278 1277 1275 1273 1272 1271 1270 1269 1267 1266 1266 1266 1266 1268 1270 1272 1274 1276 1279 1282 1285 1288 1291 1293 1296 1300 1304 1307 1310 1313 1316 1318 1321 1324 1326 1328 1331 1333 1334 1335 1337 1338 1340 1342 1343 1343 1343 1343 1343 1343 1342 1342 1341 1340 1340 1338 1336 1333 1332
1278 1277 1275 1274 1274 1272 1270 1268 1268 1267 1265 1264 1262 1262 1263 1263 1264 1266 1268 1270 1272 1274 1277 1280 1283 1285 1288 1290 1293 1297 1301 1304 1306 1310 1313 1316 1319 1321 1323 1325 1328 1330 1331 1333 1335 1336 1338 1339 1339 1339 1340 1340 1340 1339 1339 1339 1338 1338 1338 1336 1334 1331 1329
1274 1273 1271 1270 1269 1268 1266 1264 1263 1262 1261 1259 1259 1259 1260 1260 1262 1264 1266 1268 1271 1273 1275 1278 1281 1283 1286 1288 1291 1295 1299 1301 1303 1307 1311 1314 1316 1318 1320 1323 1325 1327 1329 1330 1332 1334 1334 1335 1335 1336 1337 1337 1337 1336 1336 1335 1335 1335 1335 1333 1331 1328 1326
1270 1269 1267 1266 1264 1263 1262 1260 1259 1258 1257 1255 1255 1257 1257 1258 1260 1262 1264 1266 1269 1271 1274 1276 1279 1281 1283 1286 1290 1293 1297 1299 1301 1305 1308 1311 1313 1316 1318 1320 1322 1324 1326 1328 1330 1331 1332 1333 1333 1333 1333 1334 1334 1334 1333 1333 1333 1332 1331 1330 1328 1327 1324
1267 1265 1263 1262 1260 1258 1257 1256 1254 1254 1253 1252 1252 1254 1255 1256 1258 1260 1262 1265 1267 1270 1272 1275 1277 1280 1282 1284 1288 1291 1295 1297 1300 1303 1306 1308 1311 1314 1316 1318 1320 1322 1324 1326 1328 1329 1330 1330 1330 1330 1331 1331 1332 1332 1331 1331 1330 1329 1328 1327 1326 1324 1322
1264 1261 1259 1258 1256 1254 1253 1252 1251 1250 1249 1249 1250 1252 1253 1254 1256 1258 1261 1264 1267 1269 1271 1273 1276 1278 1280 1283 1285 1289 1293 1296 1299 1302 1305 1307 1310 1312 1314 1316 1319 1321 1323 1325 1327 1327 1327 1327 1327 1328 1329 1329 1329 1329 1328 1328 1327 1327 1326 1325 1323 1321 1318
1260 1259 1256 1254 1252 1250 1249 1248 1247 1247 1246 1247 1248 1250 1252 1253 1255 1258 1260 1263 1265 1268 1270 1272 1275 1277 1279 1282 1284 1287 1291 1295 1298 1300 1303 1306 1308 1310 1312 1315 1317 1320 1322 1323 1324 1324 1324 1324 1325 1326 1327 1327 1327 1327 1326 1326 1325 1324 1323 1322 1320 1318 1315
1257 1255 1253 1250 1248 1247 1246 1245 1245 1244 1245 1245 1247 1249 1251 1252 1254 1257 1259 1262 1264 1266 1269 1272 1274 1276 1278 1281 1284 1287 1291 1295 1297 1299 1302 1304 1306 1308 1311 1314 1316 1318 1319 1321 1321 1322 1322 1322 1323 1324 1325 1325 1325 1325 1324 1324 1323 1322 1321 1319 1317 1315 1312
1254 1252 1250 1248 1246 1245 1244 1244 1243 1243 1244 1245 1246 1249 1250 1251 1254 1256 1259 1261 1264 1266 1269 1271 1273 1276 1278 1281 1284 1287 1291 1294 1296 1298 1301 1303 1305 1308 1311 1313 1315 1316 1317 1318 1319 1319 1320 1321 1322 1323 1323 1323 1323 1323 1322 1322 1321 1319 1318 1316 1314 1313 1310
1252 1250 1248 1246 1245 1244 1243 1242 1242 1242 1243 1244 1246 1248 1250 1251 1253 1256 1259 1261 1263 1265 1268 1271 1273 1275 1278 1281 1284 1287 1291 1293 1295 1297 1300 1302 1304 1307 1310 1311 1312 1314 1315 1316 1317 1318 1319 1320 1321 1321 1322 1321 1321 1321 1320 1320 1319 1317 1316 1314 1312 1311 1309
1251 1248 1247 1245 1244 1243 1242 1242 1241 1242 1243 1244 1246 1248 1250 1251 1253 1256 1259 1261 1263 1266 1268 1271 1273 1275 1278 1281 1284 1287 1289 1292 1294 1296 1299 1301 1304 1307 1308 1310 1311 1312 1313 1314 1315 1316 1317 1318 1319 1319 1320 1320 1319 1319 1318 1318 1317 1315 1314 1312 1310 1308 1306
1249 1247 1246 1244 1243 1242 1241 1241 1241 1241 1242 1243 1245 1248 1249 1251 1253 1256 1258 1260 1263 1265 1267 1270 1273 1276 1278 1281 1283 1285 1288 1290 1293 1295 1298 1301 1304 1305 1307 1308 1309 1310 1312 1313 1314 1315 1316 1317 1318 1318 1318 1318 1318 1317 1317 1316 1315 1313 1312 1311 1308 1306 1304
1248 1246 1245 1243 1242 1241 1240 1240 1240 1240 1241 1243 1244 1247 1249 1250 1252 1255 1257 1260 1262 1264 1267 1270 1272 1274 1277 1279 1281 1284 1288 1290 1293 1296 1299 1301 1302 1304 1305 1306 1308 1309 1311 1312 1313 1314 1315 1316 1316 1317 1317 1316 1316 1316 1315 1314 1313 1312 1311 1309 1307 1304 1301
1247 1245 1243 1242 1241 1240 1240 1239 1240 1240 1241 1242 1244 1246 1248 1249 1251 1254 1257 1259 1261 1263 1266 1268 1270 1272 1275 1278 1281 1285 1288 1290 1293 1296 1298 1299 1301 1302 1304 1305 1307 1308 1309 1311 1312 1313 1314 1315 1315 1315 1315 1315 1315 1315 1314 1313 1312 1311 1309 1307 1305 1302 1298
1245 1243 1242 1240 1240 1239 1239 1239 1239 1239 1240 1241 1244 1246 1248 1249 1252 1255 1257 1259 1261 1263 1265 1267 1270 1273 1275 1278 1281 1284 1287 1290 1292 1294 1296 1298 1300 1301 1303 1304 1306 1307 1309 1310 1311 1312 1313 1314 1314 1314 1314 1314 1314 1313 1313 1312 1311 1309 1308 1305 1303 1300 1296
1244 1241 1239 1239 1239 1238 1238 1238 1238 1238 1239 1241 1243 1245 1247 1249 1252 1255 1257 1259 1261 1263 1265 1268 1270 1273 1276 1279 1281 1284 1286 1289 1291 1293 1295 1297 1298 1300 1302 1303 1305 1307 1308 1310 1311 1312 1312 1313 1313 1313 1313 1313 1313 1313 1312 1311 1310 1308 1306 1304 1301 1298 1295
1242 1239 1237 1236 1237 1238 1238 1237 1237 1238 1239 1241 1242 1245 1247 1250 1252 1255 1257 1259 1261 1264 1266 1268 1271 1273 1276 1279 1281 1284 1286 1289 1291 1292 1294 1296 1297 1299 1301 1303 1305 1306 1308 1309 1310 1311 1311 1312 1312 1312 1312 1312 1312 1311 1311 1310 1308 1306 1304 1302 1299 1296 1293
1239 1237 1235 1235 1236 1237 1237 1237 1237 1238 1239 1241 1243 1245 1248 1250 1253 1255 1257 1259 1262 1264 1266 1269 1271 1274 1276 1279 1281 1284 1286 1288 1290 1292 1293 1295 1297 1299 1300 1302 1304 1306 1307 1308 1309 1310 1310 1311 1311 1311 1311 1311 1311 1310 1309 1308 1306 1305 1303 1300 1297 1295 1292
1238 1235 1234 1235 1236 1237 1238 1238 1238 1239 1240 1242 1244 1246 1249 1251 1254 1256 1258 1260 1262 1264 1266 1269 1271 1274 1276 1279 1281 1284 1286 1287 1289 1291 1293 1295 1297 1298 1300 1302 1304 1305 1306 1307 1308 1309 1309 1310 1310 1310 1310 1310 1310 1309 1308 1307 1305 1303 1301 1298 1295 1293 1290
1238 1236 1235 1236 1237 1238 1239 1239 1239 1240 1241 1243 1245 1247 1250 1252 1254 1256 1258 1260 1262 1265 1267 1269 1272 1274 1276 1279 1281 1283 1285 1287 1288 1290 1292 1294 1296 1298 1300 1302 1303 1305 1306 1306 1307 1308 1309 1309 1309 1309 1309 1309 1309 1308 1307 1305 1304 1302 1300 1297 1294 1291 1288
1240 1238 1238 1239 1240 1240 1240 1240 1241 1242 1243 1245 1247 1249 1251 1251 1252 1254 1256 1259 1262 1265 1268 1270 1272 1274 1276 1279 1281 1283 1284 1286 1288 1290 1292 1294 1296 1298 1300 1301 1303 1304 1305 1306 1307 1307 1308 1308 1308 1309 1308 1308 1307 1307 1306 1304 1303 1301 1298 1296 1293 1290 1287